FW4012 Weather Reports


Display with metric or nautical units.
time (UTC)temp
F
wind
direction
speed
MPH
gust
MPH
rain 1hr
in
rain 24hr
in
rain mn
in
humidity
%
barometer
mb
20260509104240 70 225 1.0 7.0 0.00 0.47 0.00 57 1015.8
20260509103735 70 263 4.0 7.0 0.00 0.47 0.00 57 1015.8
20260509103237 72 240 2.0 7.0 0.00 0.47 0.00 56 1015.8
20260509102738 71 223 1.0 6.0 0.00 0.47 0.00 56 1015.8
20260509102238 70 286 3.0 6.0 0.00 0.47 0.00 55 1015.8
20260509101738 70 198 2.0 7.0 0.00 0.47 0.00 54 1015.8
20260509101236 71 213 5.0 7.0 0.00 0.47 0.00 51 1015.8
20260509100735 72 119 4.0 8.0 0.00 0.47 0.00 56 1015.9
20260509100234 70 86 1.0 6.0 0.00 0.47 0.00 55 1015.9
20260509095734 70 103 4.0 6.0 0.00 0.47 0.00 56 1016.0
20260509095232 70 17 2.0 4.0 0.00 0.47 0.00 52 1016.0
20260509094729 69 109 1.0 5.0 0.00 0.47 0.00 55 1016.0
20260509094224 70 97 1.0 5.0 0.00 0.47 0.00 55 1016.0
20260509093743 70 153 3.0 7.0 0.00 0.47 0.00 56 1016.1
20260509093243 70 180 4.0 7.0 0.00 0.47 0.00 59 1016.1
20260509092811 69 100 0.0 5.0 0.00 0.47 0.00 56 1016.1
20260509092250 71 234 2.0 6.0 0.00 0.47 0.00 55 1016.0
20260509091751 70 207 2.0 5.0 0.00 0.47 0.00 56 1016.0
20260509091251 70 201 3.0 5.0 0.00 0.47 0.00 59 1016.1
20260509090751 69 145 0.0 3.0 0.00 0.47 0.00 60 1016.1
20260509090249 68 355 2.0 3.0 0.00 0.47 0.00 61 1016.2
20260509085745 68 42 1.0 5.0 0.00 0.47 0.00 61 1016.3
20260509085241 67 151 3.0 5.0 0.00 0.47 0.00 62 1016.3
20260509084755 67 292 1.0 3.0 0.00 0.47 0.00 63 1016.3
20260509084255 66 260 1.0 4.0 0.00 0.47 0.00 62 1016.3
20260509083734 66 260 1.0 4.0 0.00 0.47 0.00 62 1016.4
20260509083234 66 267 2.0 4.0 0.00 0.47 0.00 64 1016.4
20260509082733 65 242 3.0 4.0 0.00 0.47 0.00 63 1016.3
20260509082306 65 94 2.0 4.0 0.00 0.47 0.00 65 1016.3
20260509081730 65 76 2.0 4.0 0.00 0.47 0.00 66 1016.3
20260509081257 65 79 2.0 3.0 0.00 0.47 0.00 66 1016.3
20260509080730 65 40 0.0 2.0 0.00 0.47 0.00 66 1016.4
20260509080230 65 40 1.0 3.0 0.00 0.47 0.00 67 1016.4
20260509075729 65 109 1.0 6.0 0.00 0.47 0.00 69 1016.6
20260509075227 65 126 2.0 6.0 0.00 0.47 0.00 68 1016.5
20260509074727 64 107 0.0 3.0 0.00 0.47 0.00 68 1016.5
20260509074226 64 108 1.0 2.0 0.00 0.47 0.00 71 1016.6
20260509073724 64 345 0.0 3.0 0.00 0.47 0.00 70 1016.5
20260509073224 64 345 1.0 4.0 0.00 0.47 0.00 71 1016.5
20260509072739 64 342 1.0 4.0 0.00 0.47 0.00 70 1016.4
20260509072240 64 355 2.0 3.0 0.00 0.47 0.00 70 1016.4
20260509071740 63 15 1.0 4.0 0.00 0.47 0.00 72 1016.4
20260509071308 63 30 2.0 5.0 0.00 0.47 0.00 71 1016.4
20260509070735 63 23 1.0 5.0 0.00 0.47 0.00 72 1016.4
20260509070233 63 29 2.0 5.0 0.00 0.47 0.00 72 1016.4
20260509065744 63 50 2.0 3.0 0.00 0.47 0.00 75 1016.4
20260509065230 62 31 1.0 2.0 0.00 0.47 0.00 78 1016.4
20260509064758 61 15 1.0 3.0 0.00 0.47 0.00 82 1016.3
20260509064238 60 355 1.0 5.0 0.00 0.47 0.00 85 1016.5
20260509063758 59 334 3.0 6.0 0.00 0.47 0.00 88 1016.4
20260509063239 59 340 3.0 6.0 0.00 0.47 0.00 91 1016.5
20260509062736 58 309 1.0 4.0 0.00 0.47 0.00 92 1016.4
20260509062301 58 312 2.0 4.0 0.00 0.47 0.00 94 1016.4
20260509061738 57 321 2.0 5.0 0.00 0.47 0.00 94 1016.3
20260509061238 56 323 3.0 5.0 0.00 0.47 0.00 95 1016.4
20260509060738 55 319 3.0 5.0 0.00 0.47 0.00 95 1016.3
20260509060259 55 318 3.0 5.0 0.00 0.47 0.00 95 1016.3
20260509055758 55 333 3.0 5.0 0.00 0.47 0.00 96 1016.4
20260509055238 54 324 4.0 5.0 0.00 0.47 0.00 96 1016.4
20260509054738 53 320 3.0 4.0 0.00 0.47 0.00 96 1016.4
20260509054237 53 327 2.0 4.0 0.00 0.47 0.00 96 1016.3
20260509053735 52 336 3.0 4.0 0.00 0.47 0.00 96 1016.3
20260509053250 52 325 0.0 0.0 0.00 0.47 0.00 96 1016.4
20260509052729 51 325 0.0 0.0 0.00 0.47 0.00 96 1016.3
20260509052226 50 325 0.0 0.0 0.00 0.47 0.00 95 1016.3
20260509051727 49 325 0.0 0.0 0.00 0.47 0.00 95 1016.3
20260509051225 48 325 0.0 0.0 0.00 0.47 0.00 95 1016.3
20260509050731 48 325 0.0 0.0 0.00 0.47 0.00 95 1016.3
20260509050232 48 325 0.0 0.0 0.00 0.47 0.00 95 1016.3
20260509045731 48 325 0.0 0.0 0.00 0.47 0.00 94 1016.2
20260509045246 47 325 0.0 0.0 0.00 0.47 0.00 94 1016.2
20260509044727 47 325 0.0 0.0 0.00 0.47 0.00 94 1016.1
20260509044236 47 325 0.0 0.0 0.00 0.47 0.00 94 1016.0
20260509043737 47 325 0.0 0.0 0.00 0.47 0.00 94 1015.9
20260509043236 47 325 0.0 0.0 0.00 0.47 0.00 94 1015.8
20260509042755 47 325 0.0 0.0 0.00 0.47 0.00 94 1015.9
20260509042235 47 325 0.0 0.0 0.00 0.47 0.00 94 1015.9
20260509041733 47 325 0.0 0.0 0.00 0.47 0.00 94 1015.8
20260509041233 48 325 0.0 0.0 0.00 0.47 0.00 94 1015.8
20260509040752 48 325 0.0 3.0 0.00 0.47 0.00 94 1015.8
20260509040230 48 325 2.0 3.0 0.00 0.47 0.00 95 1015.8
20260509035729 48 323 2.0 3.0 0.00 0.47 0.00 94 1015.6
20260509035228 47 298 1.0 2.0 0.00 0.47 0.00 94 1015.7
20260509034752 48 298 0.0 2.0 0.00 0.47 0.00 94 1015.6
20260509034231 48 298 1.0 3.0 0.00 0.47 0.00 94 1015.6
20260509033729 48 297 2.0 4.0 0.00 0.47 0.00 94 1015.6
20260509033230 48 323 1.0 4.0 0.00 0.47 0.00 94 1015.6
20260509032728 48 306 3.0 4.0 0.00 0.47 0.00 94 1015.6
20260509032229 48 337 3.0 3.0 0.00 0.47 0.00 94 1015.7
20260509031730 48 308 2.0 3.0 0.00 0.47 0.00 94 1015.8
20260509031229 48 281 2.0 3.0 0.00 0.47 0.00 94 1015.8
20260509030731 48 355 1.0 4.0 0.00 0.47 0.00 94 1015.7
20260509030252 48 5 2.0 4.0 0.00 0.47 0.00 94 1015.7
20260509025746 48 318 2.0 3.0 0.00 0.47 0.00 93 1015.9
20260509025232 48 311 2.0 3.0 0.00 0.47 0.00 93 1015.9
20260509024731 48 311 1.0 2.0 0.00 0.47 0.00 94 1015.8
20260509024230 48 311 1.0 3.0 0.00 0.47 0.00 94 1015.7
20260509023730 48 311 2.0 3.0 0.00 0.47 0.00 93 1015.6
20260509023230 48 306 1.0 3.0 0.00 0.47 0.00 94 1015.4
20260509022750 48 306 2.0 4.0 0.00 0.47 0.00 94 1015.4
20260509022230 48 338 2.0 4.0 0.00 0.47 0.00 94 1015.5
20260509021727 48 329 3.0 4.0 0.00 0.47 0.00 94 1015.5
20260509021227 48 322 2.0 3.0 0.00 0.47 0.00 94 1015.5
20260509020754 48 324 2.0 3.0 0.00 0.47 0.00 93 1015.6
20260509020252 48 331 1.0 3.0 0.00 0.47 0.00 93 1015.7
20260509015751 48 331 1.0 3.0 0.00 0.47 0.00 93 1015.6
20260509015227 49 327 2.0 3.0 0.00 0.47 0.00 93 1015.8
20260509014727 49 331 1.0 2.0 0.00 0.47 0.00 93 1015.6
20260509014225 48 331 1.0 3.0 0.00 0.47 0.00 93 1015.8
20260509013724 49 331 1.0 3.0 0.00 0.47 0.00 93 1015.9
20260509013224 48 329 2.0 3.0 0.00 0.47 0.00 93 1016.0
20260509012755 48 329 1.0 2.0 0.00 0.47 0.00 93 1016.0
20260509012226 48 329 0.0 2.0 0.00 0.47 0.00 93 1016.0
20260509011726 48 329 2.0 2.0 0.00 0.47 0.00 93 1016.1
20260509011227 48 329 0.0 2.0 0.00 0.47 0.00 93 1016.0
20260509010745 49 329 1.0 2.0 0.00 0.47 0.00 93 1016.0
20260509010232 49 329 1.0 2.0 0.00 0.47 0.00 93 1016.0
20260509005751 49 329 1.0 2.0 0.00 0.47 0.00 93 1015.9
20260509005253 49 329 1.0 2.0 0.00 0.47 0.00 93 1016.0
20260509004752 49 329 0.0 3.0 0.00 0.47 0.00 93 1016.0
20260509004225 49 329 1.0 3.0 0.00 0.47 0.00 93 1015.8
20260509003726 49 329 0.0 0.0 0.00 0.47 0.00 93 1015.9
20260509003243 49 329 0.0 0.0 0.00 0.47 0.00 93 1015.8
20260509002723 49 329 0.0 0.0 0.00 0.47 0.00 93 1015.9
20260509002240 49 329 0.0 0.0 0.00 0.47 0.00 93 1015.8
20260509001801 49 329 0.0 0.0 0.00 0.47 0.00 92 1015.9
20260509001240 49 329 0.0 0.0 0.00 0.47 0.00 93 1015.9
20260509000736 49 329 0.0 0.0 0.00 0.47 0.00 92 1015.9
20260509000236 49 329 0.0 0.0 0.00 0.47 0.00 92 1015.8
20260508235735 49 329 0.0 0.0 0.00 0.47 0.00 92 1015.7
20260508235233 49 329 0.0 0.0 0.00 0.47 0.00 92 1015.8
20260508234818 49 329 0.0 0.0 0.00 0.47 0.00 92 1015.8
20260508233739 50 329 0.0 0.0 0.00 0.47 0.00 92 1015.6
20260508233239 50 329 0.0 0.0 0.00 0.47 0.00 92 1015.6
20260508232739 50 329 0.0 1.0 0.00 0.47 0.00 92 1015.6
20260508232238 50 329 0.0 3.0 0.00 0.47 0.00 92 1015.6
20260508231754 51 329 1.0 4.0 0.00 0.47 0.00 92 1015.6
20260508231234 51 329 2.0 4.0 0.00 0.47 0.00 92 1015.6
20260508230733 51 328 0.0 0.0 0.00 0.47 0.00 92 1015.5
20260508230232 51 342 0.0 0.0 0.00 0.47 0.00 92 1015.6
20260508225731 50 342 0.0 0.0 0.00 0.47 0.00 92 1015.7
20260508225232 50 342 0.0 0.0 0.00 0.47 0.00 92 1015.7
20260508224731 51 342 0.0 0.0 0.00 0.47 0.00 91 1015.7
20260508224230 51 342 0.0 0.0 0.00 0.47 0.00 91 1015.8
20260508223731 51 342 0.0 0.0 0.00 0.47 0.00 92 1015.8
20260508223300 51 342 0.0 0.0 0.00 0.47 0.00 92 1015.8
20260508222739 51 342 0.0 0.0 0.00 0.47 0.00 91 1015.8
20260508222232 51 326 0.0 0.0 0.00 0.47 0.00 92 1015.7
20260508221752 51 325 0.0 0.0 0.00 0.47 0.00 91 1015.7
20260508221229 51 355 0.0 0.0 0.00 0.47 0.00 91 1015.7
20260508220728 51 355 0.0 0.0 0.00 0.47 0.00 91 1015.8
20260508220257 51 355 0.0 0.0 0.00 0.47 0.00 91 1015.8
20260508215734 51 355 0.0 0.0 0.00 0.47 0.12 91 1015.7
20260508215254 51 355 0.0 0.0 0.00 0.47 0.12 91 1015.7
20260508214726 51 355 0.0 0.0 0.00 0.47 0.12 91 1015.7
20260508214226 51 355 0.0 0.0 0.00 0.47 0.12 91 1015.7
20260508213725 51 355 0.0 0.0 0.00 0.47 0.12 91 1015.6
20260508213226 52 355 0.0 0.0 0.00 0.47 0.12 90 1015.6
20260508212746 52 355 0.0 0.0 0.00 0.47 0.12 90 1015.5
20260508212227 52 355 0.0 0.0 0.00 0.47 0.12 90 1015.5
20260508211725 52 355 0.0 0.0 0.00 0.47 0.12 90 1015.6
20260508211225 52 355 0.0 0.0 0.00 0.47 0.12 90 1015.6
20260508210725 52 319 0.0 0.0 0.00 0.47 0.12 90 1015.5
20260508210247 52 319 0.0 0.0 0.00 0.47 0.12 90 1015.5
20260508205725 52 319 0.0 0.0 0.00 0.47 0.12 90 1015.5
20260508205224 52 319 0.0 0.0 0.00 0.47 0.12 90 1015.4
20260508204723 53 319 0.0 0.0 0.00 0.47 0.12 90 1015.4
20260508204224 53 319 0.0 0.0 0.00 0.47 0.12 90 1015.3
20260508203742 53 319 0.0 0.0 0.00 0.47 0.12 90 1015.3
20260508203301 53 319 0.0 0.0 0.00 0.47 0.12 90 1015.4
20260508202740 53 319 0.0 0.0 0.00 0.47 0.12 89 1015.4
20260508202310 53 319 0.0 0.0 0.00 0.47 0.12 89 1015.4
20260508201738 54 319 0.0 0.0 0.00 0.47 0.12 89 1015.4
20260508201235 54 319 0.0 0.0 0.00 0.47 0.12 89 1015.4
20260508200735 54 319 0.0 0.0 0.00 0.47 0.12 89 1015.4
20260508200231 54 319 0.0 0.0 0.00 0.47 0.12 89 1015.4
20260508195801 55 319 0.0 0.0 0.00 0.47 0.12 89 1015.3
20260508195301 55 319 0.0 0.0 0.00 0.47 0.12 89 1015.2
20260508194739 55 319 0.0 0.0 0.00 0.47 0.12 89 1015.2
20260508194240 55 319 0.0 0.0 0.00 0.47 0.12 88 1015.2
20260508193739 55 319 0.0 0.0 0.00 0.47 0.12 88 1015.1
20260508193239 55 317 0.0 0.0 0.00 0.47 0.12 88 1015.0
20260508192738 56 304 0.0 0.0 0.00 0.47 0.12 88 1014.9
20260508192239 56 303 0.0 1.0 0.00 0.47 0.12 88 1014.9
20260508191735 56 303 0.0 1.0 0.00 0.47 0.12 88 1014.8
20260508191236 57 303 0.0 0.0 0.00 0.47 0.12 87 1014.6
20260508190737 57 303 0.0 1.0 0.00 0.47 0.12 87 1014.7
20260508190236 57 303 0.0 2.0 0.00 0.47 0.12 87 1014.6
20260508185735 58 303 1.0 2.0 0.00 0.47 0.12 87 1014.5
20260508185235 58 303 2.0 2.0 0.00 0.47 0.12 87 1014.3
20260508184734 58 303 2.0 2.0 0.00 0.47 0.12 87 1014.3
20260508184234 59 303 1.0 2.0 0.00 0.47 0.12 87 1014.2
20260508183733 59 303 2.0 3.0 0.00 0.47 0.12 87 1014.1
20260508183232 60 303 2.0 3.0 0.00 0.47 0.12 87 1014.1
20260508182732 60 303 2.0 3.0 0.00 0.47 0.12 87 1014.0
20260508182248 60 301 2.0 2.0 0.00 0.47 0.12 87 1014.0
20260508181725 61 301 1.0 3.0 0.00 0.47 0.12 87 1013.8
20260508181252 61 301 2.0 3.0 0.00 0.47 0.12 86 1013.9
20260508180751 61 301 1.0 3.0 0.00 0.47 0.12 86 1013.9
20260508180245 61 301 2.0 3.0 0.00 0.47 0.12 87 1014.0
20260508175750 62 344 1.0 3.0 0.00 0.47 0.12 86 1014.0
20260508175249 62 344 1.0 3.0 0.00 0.47 0.12 86 1014.0
20260508174749 62 292 2.0 3.0 0.00 0.47 0.12 86 1014.0
20260508174229 62 325 2.0 3.0 0.00 0.47 0.12 86 1013.9
20260508173741 62 325 1.0 3.0 0.00 0.47 0.12 85 1014.0
20260508173303 62 325 2.0 3.0 0.00 0.47 0.12 85 1013.9
20260508172742 61 355 1.0 2.0 0.00 0.47 0.12 83 1014.0
20260508172242 61 360 1.0 3.0 0.00 0.47 0.12 83 1013.9
20260508171740 61 360 2.0 3.0 0.00 0.47 0.12 83 1013.9
20260508171242 61 360 0.0 2.0 0.00 0.47 0.12 83 1013.9
20260508170740 61 360 1.0 2.0 0.00 0.47 0.12 84 1013.9
20260508170302 62 5 0.0 2.0 0.00 0.47 0.12 85 1013.9
20260508165741 62 14 1.0 3.0 0.00 0.47 0.12 85 1013.9
20260508165239 62 265 2.0 3.0 0.00 0.47 0.12 86 1013.9
20260508164734 62 265 2.0 4.0 0.00 0.47 0.12 85 1013.8
20260508164234 62 304 2.0 4.0 0.00 0.47 0.12 86 1013.8
20260508163734 62 298 2.0 3.0 0.00 0.47 0.12 86 1013.8
20260508163233 62 302 0.0 1.0 0.04 0.47 0.12 85 1013.8
20260508162733 62 302 0.0 3.0 0.04 0.47 0.12 86 1013.7
20260508162252 62 302 2.0 5.0 0.04 0.47 0.12 85 1013.8
20260508161731 61 40 2.0 5.0 0.04 0.47 0.12 85 1013.8
20260508161230 61 22 2.0 3.0 0.04 0.47 0.12 85 1013.8
20260508160759 60 39 1.0 3.0 0.04 0.47 0.12 86 1013.9
20260508160239 60 39 0.0 2.0 0.04 0.47 0.12 87 1013.8
20260508155738 60 39 0.0 2.0 0.04 0.47 0.12 88 1013.9
20260508155234 60 13 1.0 3.0 0.08 0.47 0.12 88 1013.9
20260508154733 60 9 1.0 5.0 0.20 0.47 0.12 88 1014.0
20260508154232 60 302 2.0 5.0 0.20 0.47 0.12 88 1014.0
20260508153729 60 295 4.0 5.0 0.20 0.47 0.12 88 1014.1
20260508153229 59 296 1.0 4.0 0.16 0.43 0.11 88 1014.1
20260508152731 59 290 2.0 4.0 0.16 0.43 0.11 88 1014.2
20260508152231 59 308 2.0 4.0 0.16 0.43 0.11 87 1014.3
20260508151752 58 38 2.0 4.0 0.16 0.43 0.11 87 1014.3
20260508151250 58 36 2.0 5.0 0.20 0.43 0.11 86 1014.4
20260508150730 58 60 4.0 6.0 0.20 0.43 0.11 86 1014.4
20260508150229 58 45 3.0 8.0 0.24 0.43 0.11 86 1014.4
20260508145724 58 47 4.0 8.0 0.28 0.43 0.11 85 1014.3
20260508145224 58 61 1.0 5.0 0.28 0.35 0.09 85 1014.2
20260508144751 58 29 3.0 5.0 0.24 0.28 0.07 85 1014.2
20260508144232 58 292 1.0 7.0 0.24 0.28 0.07 85 1014.4
20260508143753 58 281 3.0 9.0 0.24 0.28 0.07 85 1014.3
20260508143233 58 250 4.0 7.0 0.24 0.28 0.07 85 1014.4
20260508142734 58 289 2.0 5.0 0.28 0.28 0.07 86 1014.5
20260508142234 58 259 3.0 8.0 0.28 0.28 0.07 85 1014.5
20260508141735 58 294 3.0 9.0 0.28 0.28 0.07 85 1014.6
20260508141235 59 270 3.0 9.0 0.24 0.24 0.06 84 1014.6
20260508140752 59 261 4.0 12.0 0.24 0.24 0.06 82 1014.6
20260508140232 60 280 7.0 13.0 0.20 0.20 0.05 81 1014.7
20260508135730 61 242 7.0 13.0 0.16 0.16 0.04 80 1014.7
20260508135259 63 239 4.0 12.0 0.08 0.08 0.02 78 1014.7
20260508134758 64 342 4.0 12.0 0.04 0.04 0.01 76 1014.4
20260508134237 65 343 5.0 8.0 0.04 0.04 0.01 76 1014.2
20260508133736 65 327 2.0 5.0 0.04 0.04 0.01 73 1014.2
20260508133235 66 209 2.0 6.0 0.04 0.04 0.01 70 1014.2
20260508132734 66 236 3.0 8.0 0.00 0.00 0.00 70 1014.2
20260508132235 66 224 1.0 8.0 0.00 0.00 0.00 67 1014.3
20260508131730 67 244 4.0 8.0 0.00 0.00 0.00 66 1014.2
20260508131230 67 210 5.0 8.0 0.00 0.00 0.00 65 1014.3
20260508130749 67 206 3.0 6.0 0.00 0.00 0.00 65 1014.4
20260508130258 67 203 2.0 4.0 0.00 0.00 0.00 64 1014.3
20260508125735 67 211 2.0 8.0 0.00 0.00 0.00 64 1014.3
20260508125235 67 129 4.0 9.0 0.00 0.00 0.00 64 1014.3
20260508124734 67 111 2.0 9.0 0.00 0.00 0.00 63 1014.3
20260508124234 68 141 4.0 9.0 0.00 0.00 0.00 63 1014.3
20260508123754 68 112 1.0 5.0 0.00 0.00 0.00 62 1014.3
20260508123239 68 206 3.0 5.0 0.00 0.00 0.00 63 1014.3
20260508122758 68 266 3.0 5.0 0.00 0.00 0.00 62 1014.4
20260508122236 68 194 2.0 9.0 0.00 0.00 0.00 61 1014.4
20260508121735 68 134 5.0 9.0 0.00 0.00 0.00 63 1014.4
20260508121235 68 109 3.0 7.0 0.00 0.00 0.00 64 1014.6
20260508120735 68 151 2.0 9.0 0.00 0.00 0.00 66 1014.5
20260508120234 68 153 5.0 9.0 0.00 0.00 0.00 65 1014.5
20260508115733 67 124 2.0 9.0 0.00 0.00 0.00 65 1014.6
20260508115233 67 127 3.0 9.0 0.00 0.00 0.00 66 1014.6
20260508114732 67 182 4.0 7.0 0.00 0.00 0.00 63 1014.7
20260508114232 67 184 3.0 9.0 0.00 0.00 0.00 62 1014.7
20260508113730 67 142 5.0 9.0 0.00 0.00 0.00 64 1014.6
20260508113230 67 166 2.0 9.0 0.00 0.00 0.00 65 1014.7
20260508112750 67 130 5.0 9.0 0.00 0.00 0.00 65 1014.7
20260508112250 68 126 5.0 8.0 0.00 0.00 0.00 64 1014.8
20260508111757 68 221 2.0 8.0 0.00 0.00 0.00 63 1014.8
20260508111235 68 231 5.0 11.0 0.00 0.00 0.00 62 1014.8
20260508110756 68 98 6.0 11.0 0.00 0.00 0.00 64 1014.8
20260508110236 69 205 6.0 11.0 0.00 0.00 0.00 65 1014.9
20260508105733 68 170 3.0 9.0 0.00 0.00 0.00 64 1014.8
20260508105230 68 105 4.0 6.0 0.00 0.00 0.00 66 1014.9
20260508104747 67 121 3.0 7.0 0.00 0.00 0.00 65 1014.9